owner,sensor,date,latitude,longitude,vertical_datum,direction_of_sea_water_velocity,sea_water_speed,upward_sea_water_velocity,qcFlag 
TABS,ioos:station:wmo:42047:1,2009-06-18T07:30:00Z,27.8966,-93.5973,2.0,182.417742346,54.7587454203,-99999.0,'1111122,1111122,1199999999' 
TABS,ioos:station:wmo:42047:1,2009-06-18T08:00:00Z,27.8966,-93.5973,2.0,139.006391472,76.512081399,-99999.0,'1111122,1111122,1199999999' 
TABS,ioos:station:wmo:42047:1,2009-06-18T08:30:00Z,27.8966,-93.5973,2.0,136.896518303,89.738580332,-99999.0,'1111122,1111122,1199999999' 
TABS,ioos:station:wmo:42047:1,2009-06-18T09:00:00Z,27.8966,-93.5973,2.0,205.41914469,71.3358906862,-99999.0,'1111122,1111122,1199999999' 
TABS,ioos:station:wmo:42047:1,2009-06-18T09:30:00Z,27.8966,-93.5973,2.0,207.011006356,48.2647531849,-99999.0,'1111122,1111122,1199999999' 
TABS,ioos:station:wmo:42047:1,2009-06-18T10:00:00Z,27.8966,-93.5973,2.0,214.262947969,81.8306898419,-99999.0,'1111122,1111122,1199999999' 
TABS,ioos:station:wmo:42047:1,2009-06-18T10:30:00Z,27.8966,-93.5973,2.0,34.212598236,79.3753519677,-99999.0,'1111122,1111122,1199999999' 
TABS,ioos:station:wmo:42047:1,2009-06-18T11:00:00Z,27.8966,-93.5973,2.0,216.982832676,76.1001478317,-99999.0,'1111122,1111122,1199999999' 
TABS,ioos:station:wmo:42047:1,2009-06-18T11:30:00Z,27.8966,-93.5973,2.0,165.08602639,69.8220724413,-99999.0,'1111122,1111122,1199999999' 
TABS,ioos:station:wmo:42047:1,2009-06-18T12:00:00Z,27.8966,-93.5973,2.0,41.8734873917,93.994189714,-99999.0,'1111122,1111122,1199999999' 
TABS,ioos:station:wmo:42047:1,2009-06-18T12:30:00Z,27.8966,-93.5973,2.0,76.8698787464,109.656792767,-99999.0,'1111122,1111122,1199999999' 
TABS,ioos:station:wmo:42047:1,2009-06-18T13:00:00Z,27.8966,-93.5973,2.0,297.15235692,97.7302491555,-99999.0,'1111122,1111122,1199999999' 
TABS,ioos:station:wmo:42047:1,2009-06-18T13:30:00Z,27.8966,-93.5973,2.0,57.1056191941,59.9161722743,-99999.0,'1111122,1111122,1199999999' 
TABS,ioos:station:wmo:42047:1,2009-06-18T14:00:00Z,27.8966,-93.5973,2.0,262.103472693,16.3046036444,-99999.0,'1111122,1111122,1199999999' 
TABS,ioos:station:wmo:42047:1,2009-06-18T18:00:00Z,27.8966,-93.5973,2.0,37.1999900823,30.8965127482,-99999.0,'1111122,1111122,1199999999' 
TABS,ioos:station:wmo:42047:1,2009-06-18T18:30:00Z,27.8966,-93.5973,2.0,91.6542919064,41.5673249079,-99999.0,'1111122,1111122,1199999999' 
TABS,ioos:station:wmo:42047:1,2009-06-18T19:00:00Z,27.8966,-93.5973,2.0,109.668331461,31.8799827478,-99999.0,'1111122,1111122,1199999999' 
TABS,ioos:station:wmo:42047:1,2009-06-18T19:30:00Z,27.8966,-93.5973,2.0,57.4956072032,63.5323224823,-99999.0,'1111122,1111122,1199999999' 
TABS,ioos:station:wmo:42047:1,2009-06-18T20:00:00Z,27.8966,-93.5973,2.0,181.307895602,19.7151363171,-99999.0,'1111122,1111122,1199999999' 
TABS,ioos:station:wmo:42047:1,2009-06-18T20:30:00Z,27.8966,-93.5973,2.0,294.390825844,31.2379976951,-99999.0,'1111122,1111122,1199999999' 
TABS,ioos:station:wmo:42047:1,2009-06-18T21:00:00Z,27.8966,-93.5973,2.0,56.7222797167,36.9966876896,-99999.0,'1111122,1111122,1199999999' 
TABS,ioos:station:wmo:42047:1,2009-06-18T21:30:00Z,27.8966,-93.5973,2.0,68.4907380273,49.5293044571,-99999.0,'1111122,1111122,1199999999' 
TABS,ioos:station:wmo:42047:1,2009-06-18T22:00:00Z,27.8966,-93.5973,2.0,349.3282451,33.1025346462,-99999.0,'1111122,1111122,1199999999' 
TABS,ioos:station:wmo:42047:1,2009-06-18T22:30:00Z,27.8966,-93.5973,2.0,184.610893703,37.6919858856,-99999.0,'1111122,1111122,1199999999' 
TABS,ioos:station:wmo:42047:1,2009-06-18T23:00:00Z,27.8966,-93.5973,2.0,112.939534882,13.6494432121,-99999.0,'1111122,1111122,1199999999' 
TABS,ioos:station:wmo:42047:1,2009-06-18T23:30:00Z,27.8966,-93.5973,2.0,137.472725497,43.9239456333,-99999.0,'1111122,1111122,1199999999' 
TABS,ioos:station:wmo:42047:1,2009-06-19T01:00:00Z,27.8966,-93.5973,2.0,4.80860763109,57.1411209201,-99999.0,'1111122,1111122,1199999999' 
TABS,ioos:station:wmo:42047:1,2009-06-19T01:30:00Z,27.8966,-93.5973,2.0,20.5776938388,49.5622477295,-99999.0,'1111122,1111122,1199999999' 
TABS,ioos:station:wmo:42047:1,2009-06-19T02:00:00Z,27.8966,-93.5973,2.0,59.5514291606,63.3232674457,-99999.0,'1111122,1111122,1199999999' 
TABS,ioos:station:wmo:42047:1,2009-06-19T02:30:00Z,27.8966,-93.5973,2.0,69.25860124,50.2893328649,-99999.0,'1111122,1111122,1199999999' 
TABS,ioos:station:wmo:42047:1,2009-06-19T03:00:00Z,27.8966,-93.5973,2.0,118.47461933,41.0680703223,-99999.0,'1111122,1111122,1199999999' 
TABS,ioos:station:wmo:42047:1,2009-06-19T03:30:00Z,27.8966,-93.5973,2.0,79.2059277374,93.2295446733,-99999.0,'1111122,1111122,1199999999' 
TABS,ioos:station:wmo:42047:1,2009-06-19T04:00:00Z,27.8966,-93.5973,2.0,353.47914759,77.4007370766,-99999.0,'1111122,1111122,1199999999' 
TABS,ioos:station:wmo:42047:1,2009-06-19T04:30:00Z,27.8966,-93.5973,2.0,85.178053883,81.608835306,-99999.0,'1111122,1111122,1199999999' 
TABS,ioos:station:wmo:42047:1,2009-06-19T05:00:00Z,27.8966,-93.5973,2.0,357.296499159,114.697659087,-99999.0,'1111122,1111122,1199999999' 
TABS,ioos:station:wmo:42047:1,2009-06-19T05:30:00Z,27.8966,-93.5973,2.0,359.184517249,134.903663775,-99999.0,'1111122,1111122,1199999999' 
TABS,ioos:station:wmo:42047:1,2009-06-19T06:00:00Z,27.8966,-93.5973,2.0,87.2488519504,115.212791391,-99999.0,'1111122,1111122,1199999999' 
TABS,ioos:station:wmo:42047:1,2009-06-19T06:30:00Z,27.8966,-93.5973,2.0,281.567767347,110.259568746,-99999.0,'1111122,1111122,1199999999' 
TABS,ioos:station:wmo:42047:1,2009-06-19T07:00:00Z,27.8966,-93.5973,2.0,1.37211949062,123.195324992,-99999.0,'1111122,1111122,1199999999' 
TABS,ioos:station:wmo:42047:1,2009-06-19T07:30:00Z,27.8966,-93.5973,2.0,1.37211949062,123.195324992,-99999.0,'1111122,1111122,1199999999' 
TABS,ioos:station:wmo:42047:1,2009-06-19T08:00:00Z,27.8966,-93.5973,2.0,20.0599369702,108.94949518,-99999.0,'1111122,1111122,1199999999' 
TABS,ioos:station:wmo:42047:1,2009-06-19T08:30:00Z,27.8966,-93.5973,2.0,40.4598219527,79.9488792917,-99999.0,'1111122,1111122,1199999999' 
TABS,ioos:station:wmo:42047:1,2009-06-19T09:00:00Z,27.8966,-93.5973,2.0,340.245269802,50.7996555106,-99999.0,'1111122,1111122,1199999999' 
TABS,ioos:station:wmo:42047:1,2009-06-19T09:30:00Z,27.8966,-93.5973,2.0,27.6050119644,64.310964073,-99999.0,'1111122,1111122,1199999999' 
TABS,ioos:station:wmo:42047:1,2009-06-19T10:00:00Z,27.8966,-93.5973,2.0,12.7936218979,57.261575249,-99999.0,'1111122,1111122,1199999999' 
TABS,ioos:station:wmo:42047:1,2009-06-19T10:30:00Z,27.8966,-93.5973,2.0,122.916069403,96.7041617512,-99999.0,'1111122,1111122,1199999999' 
TABS,ioos:station:wmo:42047:1,2009-06-19T11:00:00Z,27.8966,-93.5973,2.0,119.657315422,92.5200972762,-99999.0,'1111122,1111122,1199999999' 
TABS,ioos:station:wmo:42047:1,2009-06-19T11:30:00Z,27.8966,-93.5973,2.0,122.065779555,83.4632194443,-99999.0,'1111122,1111122,1199999999' 
TABS,ioos:station:wmo:42047:1,2009-06-19T12:00:00Z,27.8966,-93.5973,2.0,47.9853413654,43.4470344212,-99999.0,'1111122,1111122,1199999999' 
TABS,ioos:station:wmo:42047:1,2009-06-19T12:30:00Z,27.8966,-93.5973,2.0,129.374709864,96.8805640983,-99999.0,'1111122,1111122,1199999999' 
TABS,ioos:station:wmo:42047:1,2009-06-19T13:00:00Z,27.8966,-93.5973,2.0,107.617651858,58.084300805,-99999.0,'1111122,1111122,1199999999' 
TABS,ioos:station:wmo:42047:1,2009-06-19T13:30:00Z,27.8966,-93.5973,2.0,126.229982807,49.0670602339,-99999.0,'1111122,1111122,1199999999' 
TABS,ioos:station:wmo:42047:1,2009-06-19T14:00:00Z,27.8966,-93.5973,2.0,149.862672546,31.5092827592,-99999.0,'1111122,1111122,1199999999' 
TABS,ioos:station:wmo:42047:1,2009-06-19T14:30:00Z,27.8966,-93.5973,2.0,110.095770573,24.3312987734,-99999.0,'1111122,1111122,1199999999' 
TABS,ioos:station:wmo:42047:1,2009-06-19T15:00:00Z,27.8966,-93.5973,2.0,291.645672497,54.6540538295,-99999.0,'1111122,1111122,1199999999' 
TABS,ioos:station:wmo:42047:1,2009-06-19T15:30:00Z,27.8966,-93.5973,2.0,298.587746281,18.1189679618,-99999.0,'1111122,1111122,1199999999' 
TABS,ioos:station:wmo:42047:1,2009-06-19T16:00:00Z,27.8966,-93.5973,2.0,10.8935900059,48.3105630271,-99999.0,'1111122,1111122,1199999999' 
TABS,ioos:station:wmo:42047:1,2009-06-19T16:30:00Z,27.8966,-93.5973,2.0,6.09881118099,24.3779757158,-99999.0,'1111122,1111122,1199999999' 
TABS,ioos:station:wmo:42047:1,2009-06-19T17:00:00Z,27.8966,-93.5973,2.0,105.062971922,61.720674008,-99999.0,'1111122,1111122,1199999999' 
TABS,ioos:station:wmo:42047:1,2009-06-19T17:30:00Z,27.8966,-93.5973,2.0,101.756479713,73.2261053177,-99999.0,'1111122,1111122,1199999999' 
TABS,ioos:station:wmo:42047:1,2009-06-19T18:00:00Z,27.8966,-93.5973,2.0,55.2895390207,35.5092171133,-99999.0,'1111122,1111122,1199999999' 
TABS,ioos:station:wmo:42047:1,2009-06-19T18:30:00Z,27.8966,-93.5973,2.0,107.032192879,41.2073403655,-99999.0,'1111122,1111122,1199999999' 
TABS,ioos:station:wmo:42047:1,2009-06-19T19:00:00Z,27.8966,-93.5973,2.0,347.462916142,37.5452393786,-99999.0,'1111122,1111122,1199999999' 
TABS,ioos:station:wmo:42047:1,2009-06-19T19:30:00Z,27.8966,-93.5973,2.0,4.90303787047,37.2061459977,-99999.0,'1111122,1111122,1199999999' 
TABS,ioos:station:wmo:42047:1,2009-06-19T20:00:00Z,27.8966,-93.5973,2.0,29.326476423,55.8816186237,-99999.0,'1111122,1111122,1199999999' 
TABS,ioos:station:wmo:42047:1,2009-06-19T20:30:00Z,27.8966,-93.5973,2.0,343.354729872,24.4025510961,-99999.0,'1111122,1111122,1199999999' 
TABS,ioos:station:wmo:42047:1,2009-06-19T21:00:00Z,27.8966,-93.5973,2.0,357.236678625,14.7271246345,-99999.0,'1111122,1111122,1199999999' 
TABS,ioos:station:wmo:42047:1,2009-06-19T21:30:00Z,27.8966,-93.5973,2.0,262.113551173,39.5742959508,-99999.0,'1111122,1111122,1199999999' 
TABS,ioos:station:wmo:42047:1,2009-06-19T22:00:00Z,27.8966,-93.5973,2.0,349.121701329,5.98759551072,-99999.0,'1111122,1111122,1199999999' 
TABS,ioos:station:wmo:42047:1,2009-06-19T22:30:00Z,27.8966,-93.5973,2.0,358.876697286,7.65147044691,-99999.0,'1111122,1111122,1199999999' 
TABS,ioos:station:wmo:42047:1,2009-06-19T23:00:00Z,27.8966,-93.5973,2.0,358.933446463,22.5639092358,-99999.0,'1111122,1111122,1199999999' 
TABS,ioos:station:wmo:42047:1,2009-06-19T23:30:00Z,27.8966,-93.5973,2.0,12.4743505275,45.6476122048,-99999.0,'1111122,1111122,1199999999' 
TABS,ioos:station:wmo:42047:1,2009-06-20T00:30:00Z,27.8966,-93.5973,2.0,11.5975096925,56.6567039281,-99999.0,'1111122,1111122,1199999999' 
TABS,ioos:station:wmo:42047:1,2009-06-20T01:00:00Z,27.8966,-93.5973,2.0,106.626629883,36.2767418603,-99999.0,'1111122,1111122,1199999999' 
TABS,ioos:station:wmo:42047:1,2009-06-20T01:30:00Z,27.8966,-93.5973,2.0,9.23617923508,74.1412327926,-99999.0,'1111122,1111122,1199999999' 
TABS,ioos:station:wmo:42047:1,2009-06-20T02:00:00Z,27.8966,-93.5973,2.0,24.3240824056,43.1175335565,-99999.0,'1111122,1111122,1199999999' 
TABS,ioos:station:wmo:42047:1,2009-06-20T02:30:00Z,27.8966,-93.5973,2.0,16.2061675978,96.2756428179,-99999.0,'1111122,1111122,1199999999' 
TABS,ioos:station:wmo:42047:1,2009-06-20T03:00:00Z,27.8966,-93.5973,2.0,16.7219767211,94.1514577689,-99999.0,'1111122,1111122,1199999999' 
TABS,ioos:station:wmo:42047:1,2009-06-20T03:30:00Z,27.8966,-93.5973,2.0,16.608902643,100.231856213,-99999.0,'1111122,1111122,1199999999' 
TABS,ioos:station:wmo:42047:1,2009-06-20T04:00:00Z,27.8966,-93.5973,2.0,13.849455748,89.2754126286,-99999.0,'1111122,1111122,1199999999' 
TABS,ioos:station:wmo:42047:1,2009-06-20T04:30:00Z,27.8966,-93.5973,2.0,18.5048082384,98.555618815,-99999.0,'1111122,1111122,1199999999' 
TABS,ioos:station:wmo:42047:1,2009-06-20T05:00:00Z,27.8966,-93.5973,2.0,16.0432122435,98.9643097283,-99999.0,'1111122,1111122,1199999999' 
TABS,ioos:station:wmo:42047:1,2009-06-20T05:30:00Z,27.8966,-93.5973,2.0,27.2743162051,39.0179035828,-99999.0,'1111122,1111122,1199999999' 
TABS,ioos:station:wmo:42047:1,2009-06-20T06:00:00Z,27.8966,-93.5973,2.0,6.49995277674,95.0509926303,-99999.0,'1111122,1111122,1199999999' 
TABS,ioos:station:wmo:42047:1,2009-06-20T06:30:00Z,27.8966,-93.5973,2.0,10.6492702783,95.0775394086,-99999.0,'1111122,1111122,1199999999' 
TABS,ioos:station:wmo:42047:1,2009-06-20T07:00:00Z,27.8966,-93.5973,2.0,103.33225352,91.1978535932,-99999.0,'1111122,1111122,1199999999' 
TABS,ioos:station:wmo:42047:1,2009-06-20T07:30:00Z,27.8966,-93.5973,2.0,14.9170069397,110.131461899,-99999.0,'1111122,1111122,1199999999' 
TABS,ioos:station:wmo:42047:1,2009-06-20T08:00:00Z,27.8966,-93.5973,2.0,341.814088423,96.763448161,-99999.0,'1111122,1111122,1199999999' 
TABS,ioos:station:wmo:42047:1,2009-06-20T08:30:00Z,27.8966,-93.5973,2.0,101.748270033,96.8998957688,-99999.0,'1111122,1111122,1199999999' 
TABS,ioos:station:wmo:42047:1,2009-06-20T09:00:00Z,27.8966,-93.5973,2.0,23.9760821325,94.1540678888,-99999.0,'1111122,1111122,1199999999' 
TABS,ioos:station:wmo:42047:1,2009-06-20T09:30:00Z,27.8966,-93.5973,2.0,313.017762753,103.235726858,-99999.0,'1111122,1111122,1199999999' 
TABS,ioos:station:wmo:42047:1,2009-06-20T10:00:00Z,27.8966,-93.5973,2.0,36.6223779744,53.2404968046,-99999.0,'1111122,1111122,1199999999' 
TABS,ioos:station:wmo:42047:1,2009-06-20T10:30:00Z,27.8966,-93.5973,2.0,36.6223779744,53.2404968046,-99999.0,'1111122,1111122,1199999999' 
TABS,ioos:station:wmo:42047:1,2009-06-20T11:00:00Z,27.8966,-93.5973,2.0,36.6223779744,53.2404968046,-99999.0,'1111122,1111122,1199999999' 
TABS,ioos:station:wmo:42047:1,2009-06-20T11:30:00Z,27.8966,-93.5973,2.0,117.825849608,64.2264774061,-99999.0,'1111122,1111122,1199999999' 
TABS,ioos:station:wmo:42047:1,2009-06-20T12:00:00Z,27.8966,-93.5973,2.0,100.890647673,109.87896796,-99999.0,'1111122,1111122,1199999999' 
TABS,ioos:station:wmo:42047:1,2009-06-20T12:30:00Z,27.8966,-93.5973,2.0,7.47005200108,74.1493088302,-99999.0,'1111122,1111122,1199999999' 
TABS,ioos:station:wmo:42047:1,2009-06-20T13:00:00Z,27.8966,-93.5973,2.0,346.482379724,66.1834072861,-99999.0,'1111122,1111122,1199999999' 
TABS,ioos:station:wmo:42047:1,2009-06-20T13:30:00Z,27.8966,-93.5973,2.0,5.24339697606,49.7883410047,-99999.0,'1111122,1111122,1199999999' 
TABS,ioos:station:wmo:42047:1,2009-06-20T14:00:00Z,27.8966,-93.5973,2.0,71.4322515139,12.2791571372,-99999.0,'1111122,1111122,1199999999' 
TABS,ioos:station:wmo:42047:1,2009-06-20T14:30:00Z,27.8966,-93.5973,2.0,211.789898503,12.9649257615,-99999.0,'1111122,1111122,1199999999' 
TABS,ioos:station:wmo:42047:1,2009-06-20T15:00:00Z,27.8966,-93.5973,2.0,63.1686595907,35.6030588574,-99999.0,'1111122,1111122,1199999999' 
TABS,ioos:station:wmo:42047:1,2009-06-20T15:30:00Z,27.8966,-93.5973,2.0,45.404002006,22.0622800272,-99999.0,'1111122,1111122,1199999999' 
TABS,ioos:station:wmo:42047:1,2009-06-20T16:00:00Z,27.8966,-93.5973,2.0,153.14469913,22.0702741261,-99999.0,'1111122,1111122,1199999999' 
TABS,ioos:station:wmo:42047:1,2009-06-20T16:30:00Z,27.8966,-93.5973,2.0,139.899527782,52.9862038648,-99999.0,'1111122,1111122,1199999999' 
TABS,ioos:station:wmo:42047:1,2009-06-20T17:00:00Z,27.8966,-93.5973,2.0,200.143037216,53.2574464277,-99999.0,'1111122,1111122,1199999999' 
TABS,ioos:station:wmo:42047:1,2009-06-20T17:30:00Z,27.8966,-93.5973,2.0,154.567768581,79.1722805027,-99999.0,'1111122,1111122,1199999999' 
TABS,ioos:station:wmo:42047:1,2009-06-20T18:00:00Z,27.8966,-93.5973,2.0,188.725983252,51.8096873181,-99999.0,'1111122,1111122,1199999999' 
TABS,ioos:station:wmo:42047:1,2009-06-20T18:30:00Z,27.8966,-93.5973,2.0,99.0490429409,68.6038380851,-99999.0,'1111122,1111122,1199999999' 
TABS,ioos:station:wmo:42047:1,2009-06-20T19:00:00Z,27.8966,-93.5973,2.0,60.7477925836,23.6567791552,-99999.0,'1111122,1111122,1199999999' 
TABS,ioos:station:wmo:42047:1,2009-06-20T19:30:00Z,27.8966,-93.5973,2.0,176.26581167,40.0750820336,-99999.0,'1111122,1111122,1199999999' 
TABS,ioos:station:wmo:42047:1,2009-06-20T20:00:00Z,27.8966,-93.5973,2.0,147.265331585,61.7106554819,-99999.0,'1111122,1111122,1199999999' 
TABS,ioos:station:wmo:42047:1,2009-06-20T20:30:00Z,27.8966,-93.5973,2.0,156.941319831,79.0453951853,-99999.0,'1111122,1111122,1199999999' 
TABS,ioos:station:wmo:42047:1,2009-06-20T21:00:00Z,27.8966,-93.5973,2.0,156.941319831,79.0453951853,-99999.0,'1111122,1111122,1199999999' 
TABS,ioos:station:wmo:42047:1,2009-06-20T21:30:00Z,27.8966,-93.5973,2.0,68.5303470238,26.9392743035,-99999.0,'1111122,1111122,1199999999' 
TABS,ioos:station:wmo:42047:1,2009-06-20T22:00:00Z,27.8966,-93.5973,2.0,178.674627156,66.1476968609,-99999.0,'1111122,1111122,1199999999' 
TABS,ioos:station:wmo:42047:1,2009-06-20T22:30:00Z,27.8966,-93.5973,2.0,213.548500326,65.1053607624,-99999.0,'1111122,1111122,1199999999' 
TABS,ioos:station:wmo:42047:1,2009-06-20T23:00:00Z,27.8966,-93.5973,2.0,182.861552452,67.1036727758,-99999.0,'1111122,1111122,1199999999' 
TABS,ioos:station:wmo:42047:1,2009-06-21T00:00:00Z,27.8966,-93.5973,2.0,176.480632765,75.9131642075,-99999.0,'1111122,1111122,1199999999' 
TABS,ioos:station:wmo:42047:1,2009-06-21T00:30:00Z,27.8966,-93.5973,2.0,161.309935773,61.7883556991,-99999.0,'1111122,1111122,1199999999' 
TABS,ioos:station:wmo:42047:1,2009-06-21T01:00:00Z,27.8966,-93.5973,2.0,168.102291845,117.381683409,-99999.0,'1111122,1111122,1199999999' 
TABS,ioos:station:wmo:42047:1,2009-06-21T01:30:00Z,27.8966,-93.5973,2.0,168.102291845,117.381683409,-99999.0,'1111122,1111122,1199999999' 
TABS,ioos:station:wmo:42047:1,2009-06-21T02:00:00Z,27.8966,-93.5973,2.0,168.102291845,117.381683409,-99999.0,'1111122,1111122,1199999999' 
TABS,ioos:station:wmo:42047:1,2009-06-21T02:30:00Z,27.8966,-93.5973,2.0,168.102291845,117.381683409,-99999.0,'1111122,1111122,1199999999' 
TABS,ioos:station:wmo:42047:1,2009-06-21T03:00:00Z,27.8966,-93.5973,2.0,168.102291845,117.381683409,-99999.0,'1111122,1111122,1199999999' 
TABS,ioos:station:wmo:42047:1,2009-06-21T03:30:00Z,27.8966,-93.5973,2.0,82.923577134,87.7484045439,-99999.0,'1111122,1111122,1199999999' 
TABS,ioos:station:wmo:42047:1,2009-06-21T04:00:00Z,27.8966,-93.5973,2.0,69.3693222314,79.0707253034,-99999.0,'1111122,1111122,1199999999' 
TABS,ioos:station:wmo:42047:1,2009-06-21T04:30:00Z,27.8966,-93.5973,2.0,77.4735082544,107.335021312,-99999.0,'1111122,1111122,1199999999' 
TABS,ioos:station:wmo:42047:1,2009-06-21T05:00:00Z,27.8966,-93.5973,2.0,69.7723740297,112.508821432,-99999.0,'1111122,1111122,1199999999' 
TABS,ioos:station:wmo:42047:1,2009-06-21T06:00:00Z,27.8966,-93.5973,2.0,65.6042345744,68.880007259,-99999.0,'1111122,1111122,1199999999' 
TABS,ioos:station:wmo:42047:1,2009-06-21T06:30:00Z,27.8966,-93.5973,2.0,65.6042345744,68.880007259,-99999.0,'1111122,1111122,1199999999' 
TABS,ioos:station:wmo:42047:1,2009-06-21T07:00:00Z,27.8966,-93.5973,2.0,65.6042345744,68.880007259,-99999.0,'1111122,1111122,1199999999' 
TABS,ioos:station:wmo:42047:1,2009-06-21T07:30:00Z,27.8966,-93.5973,2.0,65.6042345744,68.880007259,-99999.0,'1111122,1111122,1199999999' 
TABS,ioos:station:wmo:42047:1,2009-06-21T08:00:00Z,27.8966,-93.5973,2.0,65.6042345744,68.880007259,-99999.0,'1111122,1111122,1199999999' 
TABS,ioos:station:wmo:42047:1,2009-06-21T08:30:00Z,27.8966,-93.5973,2.0,65.6042345744,68.880007259,-99999.0,'1111122,1111122,1199999999' 
TABS,ioos:station:wmo:42047:1,2009-06-21T09:00:00Z,27.8966,-93.5973,2.0,65.6042345744,68.880007259,-99999.0,'1111122,1111122,1199999999' 
TABS,ioos:station:wmo:42047:1,2009-06-21T09:30:00Z,27.8966,-93.5973,2.0,63.3031510379,112.760734301,-99999.0,'1111122,1111122,1199999999' 
TABS,ioos:station:wmo:42047:1,2009-06-21T10:00:00Z,27.8966,-93.5973,2.0,70.1854806746,136.469702498,-99999.0,'1111122,1111122,1199999999' 
TABS,ioos:station:wmo:42047:1,2009-06-21T10:30:00Z,27.8966,-93.5973,2.0,66.8159361314,139.83216404,-99999.0,'1111122,1111122,1199999999' 
TABS,ioos:station:wmo:42047:1,2009-06-21T11:00:00Z,27.8966,-93.5973,2.0,59.3782109616,113.787907969,-99999.0,'1111122,1111122,1199999999' 
TABS,ioos:station:wmo:42047:1,2009-06-21T11:30:00Z,27.8966,-93.5973,2.0,63.7393060107,104.394542482,-99999.0,'1111122,1111122,1199999999' 
TABS,ioos:station:wmo:42047:1,2009-06-21T12:00:00Z,27.8966,-93.5973,2.0,67.847613581,83.061226213,-99999.0,'1111122,1111122,1199999999' 
TABS,ioos:station:wmo:42047:1,2009-06-21T12:30:00Z,27.8966,-93.5973,2.0,59.5760671276,122.868754775,-99999.0,'1111122,1111122,1199999999' 
TABS,ioos:station:wmo:42047:1,2009-06-21T13:00:00Z,27.8966,-93.5973,2.0,68.526699538,90.1472800477,-99999.0,'1111122,1111122,1199999999' 
TABS,ioos:station:wmo:42047:1,2009-06-21T13:30:00Z,27.8966,-93.5973,2.0,77.8569151314,101.020295486,-99999.0,'1111122,1111122,1199999999' 
TABS,ioos:station:wmo:42047:1,2009-06-21T14:00:00Z,27.8966,-93.5973,2.0,80.344071331,78.8166124621,-99999.0,'1111122,1111122,1199999999' 
TABS,ioos:station:wmo:42047:1,2009-06-21T14:30:00Z,27.8966,-93.5973,2.0,90.628639224,65.6239498964,-99999.0,'1111122,1111122,1199999999' 
TABS,ioos:station:wmo:42047:1,2009-06-21T15:00:00Z,27.8966,-93.5973,2.0,89.676579582,46.0607338196,-99999.0,'1111122,1111122,1199999999' 
TABS,ioos:station:wmo:42047:1,2009-06-21T15:30:00Z,27.8966,-93.5973,2.0,83.0458075759,11.2326354877,-99999.0,'1111122,1111122,1199999999' 
TABS,ioos:station:wmo:42047:1,2009-06-21T16:00:00Z,27.8966,-93.5973,2.0,130.27018108,29.8425367554,-99999.0,'1111122,1111122,1199999999' 
TABS,ioos:station:wmo:42047:1,2009-06-21T16:30:00Z,27.8966,-93.5973,2.0,139.795262793,20.216233576,-99999.0,'1111122,1111122,1199999999' 
TABS,ioos:station:wmo:42047:1,2009-06-21T17:00:00Z,27.8966,-93.5973,2.0,148.024041228,47.4730713142,-99999.0,'1111122,1111122,1199999999' 
TABS,ioos:station:wmo:42047:1,2009-06-21T17:30:00Z,27.8966,-93.5973,2.0,175.737962241,74.2754017155,-99999.0,'1111122,1111122,1199999999' 
TABS,ioos:station:wmo:42047:1,2009-06-21T18:00:00Z,27.8966,-93.5973,2.0,177.039708786,45.8912388153,-99999.0,'1111122,1111122,1199999999' 
TABS,ioos:station:wmo:42047:1,2009-06-21T18:30:00Z,27.8966,-93.5973,2.0,251.281198114,21.0641899915,-99999.0,'1111122,1111122,1199999999' 
TABS,ioos:station:wmo:42047:1,2009-06-21T19:00:00Z,27.8966,-93.5973,2.0,355.945141605,69.0127524447,-99999.0,'1111122,1111122,1199999999' 
TABS,ioos:station:wmo:42047:1,2009-06-21T19:30:00Z,27.8966,-93.5973,2.0,139.020881102,37.0091407628,-99999.0,'1111122,1111122,1199999999' 
TABS,ioos:station:wmo:42047:1,2009-06-21T20:00:00Z,27.8966,-93.5973,2.0,296.310610551,55.387949953,-99999.0,'1111122,1111122,1199999999' 
TABS,ioos:station:wmo:42047:1,2009-06-21T20:30:00Z,27.8966,-93.5973,2.0,137.545912251,16.2370563835,-99999.0,'1111122,1111122,1199999999' 
TABS,ioos:station:wmo:42047:1,2009-06-21T21:00:00Z,27.8966,-93.5973,2.0,326.211681685,30.7304360529,-99999.0,'1111122,1111122,1199999999' 
TABS,ioos:station:wmo:42047:1,2009-06-21T21:30:00Z,27.8966,-93.5973,2.0,287.935075311,24.6477301186,-99999.0,'1111122,1111122,1199999999' 
TABS,ioos:station:wmo:42047:1,2009-06-21T22:00:00Z,27.8966,-93.5973,2.0,160.312753745,38.0544517764,-99999.0,'1111122,1111122,1199999999' 
TABS,ioos:station:wmo:42047:1,2009-06-21T22:30:00Z,27.8966,-93.5973,2.0,149.303265807,30.9112406739,-99999.0,'1111122,1111122,1199999999' 
TABS,ioos:station:wmo:42047:1,2009-06-21T23:00:00Z,27.8966,-93.5973,2.0,167.607911509,48.1825611607,-99999.0,'1111122,1111122,1199999999' 
TABS,ioos:station:wmo:42047:1,2009-06-21T23:30:00Z,27.8966,-93.5973,2.0,169.565941788,73.7698590211,-99999.0,'1111122,1111122,1199999999' 
TABS,ioos:station:wmo:42047:1,2009-06-22T00:00:00Z,27.8966,-93.5973,2.0,147.078653711,17.5717102184,-99999.0,'1111122,1111122,1199999999' 
TABS,ioos:station:wmo:42047:1,2009-06-22T00:30:00Z,27.8966,-93.5973,2.0,174.834410441,64.7529844872,-99999.0,'1111122,1111122,1199999999' 
TABS,ioos:station:wmo:42047:1,2009-06-22T01:00:00Z,27.8966,-93.5973,2.0,173.814745084,67.3822506303,-99999.0,'1111122,1111122,1199999999' 
TABS,ioos:station:wmo:42047:1,2009-06-22T01:30:00Z,27.8966,-93.5973,2.0,186.89525726,50.7268932619,-99999.0,'1111122,1111122,1199999999' 
TABS,ioos:station:wmo:42047:1,2009-06-22T02:00:00Z,27.8966,-93.5973,2.0,53.0238304949,7.54801298356,-99999.0,'1111122,1111122,1199999999' 
TABS,ioos:station:wmo:42047:1,2009-06-22T02:30:00Z,27.8966,-93.5973,2.0,146.184787177,15.2376507376,-99999.0,'1111122,1111122,1199999999' 
TABS,ioos:station:wmo:42047:1,2009-06-22T03:00:00Z,27.8966,-93.5973,2.0,66.3033390964,27.7933697129,-99999.0,'1111122,1111122,1199999999' 